Regional Weather Roundup
Issued by NWS

Home | Current Version | Previous Version | Text Only | Print | Product List | Glossary Off
Versions: 1 2 3 4 5 6 7 8 9 10 11 12 13 14 15 16 17 18 19 20 21 22 23 24 25 26 27 28 29 30 31 32 33 34 35 36 37 38 39 40 41 42 43 44 45 46 47 48 49 50

000
ASUS45 KTFX 192210
RWRMT
MONTANA REGIONAL WEATHER ROUNDUP
NATIONAL WEATHER SERVICE GREAT FALLS MT
400 PM MDT TUE SEP 19 2017

NOTE: "FAIR" INDICATES FEW OR NO CLOUDS BELOW 12000 FEET WITH NO
SIGNIFICANT WEATHER AND/OR OBSTRUCTIONS TO VISIBILITY.

MTZ001>007-043-192300-
WEST OF THE DIVIDE

CITY           SKY/WX    TMP DP  RH WIND       PRES   REMARKS
KALISPELL      CLOUDY    51  41  68 S9        29.67S
MISSOULA       CLOUDY    50  37  61 W15       29.72F
BUTTE          CLOUDY    42  35  76 N7        29.73F
MULLAN PASS    SNOW      32  30  92 VRB5      29.70S VSB 1/4
ANACONDA         N/A     46  27  46 W8        29.72F
DEER LODGE       N/A     43  34  70 NE8       29.76R
HAMILTON         N/A     46  34  61 S12       29.76R
LIBBY            N/A     48  45  87 CALM      29.67F
PLAINS           N/A     55  39  54 S12       29.73F
$$

MTZ008-052>055-192300-
SOUTHWEST MONTANA

CITY           SKY/WX    TMP DP  RH WIND       PRES   REMARKS
BOZEMAN        LGT RAIN  45  37  73 W13       29.73R
DILLON         CLOUDY    46  31  55 SW18G28   29.74R
W YELLOWSTONE  CLOUDY    36  32  87 CALM      29.80S
ENNIS          CLOUDY    48  27  43 SE14G23   29.78F
THREE FORKS      N/A     53  32  45 SW5       29.74R
TWIN BRIDGES     N/A     49  31  50 CALM      29.77S
$$

MTZ009-010-012-014-046-048-049-054-192300-
EAST SLOPES AND CENTRAL MONTANA

CITY           SKY/WX    TMP DP  RH WIND       PRES   REMARKS
CUT BANK       CLOUDY    51  29  42 W18G26    29.59S
GREAT FALLS    CLOUDY    56  26  31 SW18      29.62F
MALMSTROM AFB  CLOUDY    57  27  31 SW16      29.63S
HELENA         CLOUDY    48  32  53 W22G28    29.69R
BOWMANS CRNR   LGT RAIN  46  33  61 SW21      29.64R
CHOTEAU          N/A     55  27  33 SW9       29.63F
FAIRFIELD        N/A     54  26  33 W14       29.61F
POWER            N/A     57  25  29 W20G28    29.61S
RAYNESFORD       N/A     54  25  31 W20G26    29.63S
$$

MTZ011-013-016-021-045-047-050-051-192300-
NORTH CENTRAL MONTANA

CITY           SKY/WX    TMP DP  RH WIND       PRES   REMARKS
HAVRE          CLOUDY    60  29  30 SW13      29.57F
LEWISTOWN      MOSUNNY   54  26  34 W8G18     29.63S
N BAR RANCH      N/A     55  25  30 NW14      29.66S
CHINOOK          N/A     61  28  29 SW10      29.57F
DENTON           N/A     55  28  35 NW9       29.59S
GEYSER           N/A     55  26  33 W22G31    29.62S
GRASS RANGE      N/A     55  26  32 NW13      29.60
JUDITH GAP     PTSUNNY   53  26  35 NW7       29.64S
WINIFRED         N/A     55  28  35 W8G18     29.61F
$$

MTZ017>020-022>027-061-062-192300-
NORTHEAST MONTANA

CITY           SKY/WX    TMP DP  RH WIND       PRES   REMARKS
GLASGOW          N/A     57  38  48 MISG      29.55R
SIDNEY         CLOUDY    61  37  41 W15G22    29.53R
WOLF POINT     CLOUDY    59  38  45 W20G28    29.55R
MALTA          MOSUNNY   61  34  36 W15G23    29.57S
PLENTYWOOD       N/A     61  39  44 W8        29.48R
POPLAR           N/A     59  37  44 W13       29.54R
SCOBEY           N/A     58  37  45 W15       29.53R
$$

MTZ028>42-056>058-192300-
SOUTHCENTRAL AND SOUTHEAST MONTANA

CITY           SKY/WX    TMP DP  RH WIND       PRES   REMARKS
BAKER          LGT RAIN  51  44  77 W13       29.62R
BILLINGS       PTSUNNY   60  30  32 W14       29.65F
LIVINGSTON     CLOUDY    57  29  34 SW17      29.67F
MILES CITY     CLOUDY    55  37  50 NW20G26   29.63F
BIG TIMBER     MOSUNNY   52  32  46 NW12      29.70F
EKALAKA          N/A     47  42  82 W10       29.65R
HARLOWTON      LGT RAIN  51  34  51 MISG      29.66S
LAUREL           N/A     61  28  29 NW21G26   29.66F
$$

REGIONAL REPORTS...DAKOTAS

CITY           SKY/WX    TMP DP  RH WIND       PRES   REMARKS
WILLISTON      CLOUDY    62  44  51 W14       29.49S
MINOT          CLOUDY    66  52  60 SW16G24   29.44R
DICKINSON      LGT RAIN  58  48  69 W17       29.53S
BEACH          DRIZZLE   54  50  87 W12G18    29.60R
CROSBY           N/A     61  50  67 NW14G20   29.46F
TIOGA          CLOUDY    61  54  77 W14       29.49S
WATFORD CITY     N/A     61  48  63 W14       29.50R
BISMARCK       PTSUNNY   72  51  47 W14       29.45F
GRAND FORKS    CLOUDY    73  64  73 SE15      29.54F
FARGO          CLOUDY    73  65  75 SE17G28   29.52F
BUFFALO SD       N/A     52  49  89 W16       29.57R
RAPID CITY     LGT RAIN  57  54  88 N15       29.62R
$$

REGIONAL REPORTS...WYOMING/IDAHO/WASHINGTON

CITY           SKY/WX    TMP DP  RH WIND       PRES   REMARKS
GILLETTE       CLOUDY    46  44  93 NW15      29.71R
SHERIDAN       MOSUNNY   52  38  58 NW9       29.71R
BUFFALO WY     CLOUDY    44  39  82 NW13      29.73R
CODY           SUNNY     50  36  58 VRB7      29.74R
YELLOWSTONE LA   N/A     29  28  96 VRB6      29.83S WCI  23
IDAHO FALLS    CLOUDY    54  32  43 SW22G33   29.82S
SALMON         CLOUDY    52  33  48 VRB5      29.75S
BOISE          CLOUDY    58  35  42 W13       29.88F
SPOKANE        CLOUDY    48  45  89 S10       29.71S
$$

REGIONAL REPORTS...ALBERTA

CITY           SKY/WX    TMP DP  RH WIND       PRES   REMARKS
EDMONTON       CLOUDY    41  36  81 W20G25    29.41F
CALGARY        MOSUNNY   57  16  19 W16G28    29.48S
LETHBRIDGE     PTSUNNY   59  23  25 W28G35    29.52S
MEDICINE HAT   PTSUNNY   59  28  31 SW13      29.52F
$$

REGIONAL REPORTS...SASKATCHEWAN

CITY           SKY/WX    TMP DP  RH WIND       PRES   REMARKS
SWIFT CURRENT  PTSUNNY   55  36  47 W18G31    29.49R
REGINA         PTSUNNY   55  46  71 W20       29.43R
SASKATOON      LGT RAIN  50  48  93 W15       29.42S
$$



USA.gov is the U.S. government's official web portal to all federal, state and local government web resources and services.